GEFSMW_con_maxscp_192.txt.gz
SCP
2 2 2 2 2 2 3 4 6 6 6 5 4 3 2 1 1 1 1 1 1 1 4 7 4 1 1 0 1 1 1 0 0 0 0 0 0 0 0 1 1 0 0
2 2 2 2 2 2 3 5 6 7 7 6 4 3 2 2 1 1 1 1 1 1 2 3 2 0 0 0 0 1 1 0 0 0 0 0 0 0 0 1 1 1 1
2 2 2 2 2 2 3 4 6 7 7 6 5 4 3 2 2 2 2 2 1 1 1 1 1 1 1 1 0 0 0 0 0 0 0 0 0 0 0 0 1 1 1
2 2 2 3 2 2 3 4 5 5 5 5 4 4 3 3 2 2 2 2 1 1 1 1 1 1 1 1 0 0 0 0 0 0 0 1 1 0 0 0 0 1 1
2 2 3 3 2 2 3 3 4 4 4 4 3 3 3 3 2 2 1 1 1 1 1 1 1 1 1 1 1 1 0 0 1 1 1 1 1 1 1 0 0 0 0
2 3 3 3 3 3 3 3 3 3 3 3 3 3 3 2 2 1 1 1 1 1 1 1 1 1 1 1 1 1 1 1 1 1 2 2 2 2 1 1 0 0 0
2 3 3 3 3 3 3 3 3 3 3 3 2 2 2 2 2 1 1 1 1 1 1 1 1 1 1 1 1 1 1 1 1 2 2 2 2 2 2 1 1 0 0
2 3 3 3 3 3 3 3 3 3 3 3 3 3 2 2 2 2 2 2 1 1 1 1 1 1 1 1 1 1 1 1 1 2 2 2 2 2 1 1 1 0 0
2 3 3 3 3 3 3 3 3 3 3 3 3 3 3 2 2 2 2 2 2 2 1 1 1 1 1 1 1 1 1 1 1 1 1 1 1 1 1 1 1 0 0
3 3 4 3 3 4 4 4 3 3 3 3 3 3 3 3 3 2 2 3 3 2 2 1 1 1 1 1 1 1 1 1 1 1 1 1 1 1 1 1 1 1 0
4 4 4 4 4 5 5 4 4 3 3 3 3 4 4 4 4 3 3 3 3 3 2 2 2 1 1 1 1 1 1 1 1 1 1 1 1 1 1 1 1 0 0
5 5 4 5 5 6 5 5 4 4 4 4 4 4 4 5 5 5 4 4 4 4 3 3 2 2 2 1 1 1 1 1 1 1 1 2 2 1 1 1 0 0 0
5 5 5 6 7 7 7 6 6 6 6 6 6 6 6 6 6 6 6 5 5 4 4 4 3 3 2 2 2 2 2 1 1 1 2 2 2 2 1 1 0 0 0
4 4 5 6 7 8 8 8 8 8 9 9 9 8 8 8 8 8 8 7 6 6 5 5 4 4 3 3 3 2 2 2 2 2 2 2 2 2 1 1 0 0 0
4 4 4 5 6 7 8 9 11 12 12 13 12 12 11 11 11 10 10 10 9 8 7 6 5 4 4 3 3 3 3 3 2 2 1 1 1 1 1 1 0 0 0
3 3 4 4 5 6 7 8 12 15 16 16 15 15 14 14 14 14 13 13 12 11 9 7 6 5 4 3 2 3 4 3 3 2 1 1 1 1 1 0 0 0 0
4 4 4 4 4 5 5 7 11 16 18 18 17 16 16 16 16 16 15 14 13 12 11 9 8 7 5 3 1 2 3 3 3 2 1 1 1 1 0 0 0 0 0
5 5 5 4 4 4 5 7 11 15 17 18 17 17 16 16 15 15 14 14 13 12 11 10 9 8 6 3 1 1 2 3 3 2 1 1 1 1 0 0 0 0 0
6 6 6 5 5 5 6 8 12 16 17 16 15 14 13 13 12 11 11 11 10 10 10 10 9 9 7 3 1 1 2 3 2 1 1 1 1 0 0 0 0 0 0
7 7 7 6 6 7 7 9 11 15 15 13 10 9 9 8 7 7 7 7 7 8 8 8 8 7 6 3 1 1 2 2 2 1 1 1 0 0 0 0 0 0 0
7 7 7 7 7 8 9 9 10 11 11 8 6 5 6 5 4 4 4 4 4 5 5 5 5 4 3 2 0 0 1 2 1 1 0 0 0 0 0 0 0 0 0
6 7 7 7 8 9 9 9 9 9 8 7 6 5 5 4 3 2 2 2 2 2 3 3 2 2 1 1 0 0 1 1 1 1 0 0 0 0 0 0 0 0 0
5 6 7 7 8 8 9 9 9 8 9 9 9 7 6 4 3 2 2 2 2 2 2 2 1 1 1 1 0 0 0 0 0 0 0 0 0 0 0 0 0 0 0
5 5 6 7 8 8 8 8 8 8 9 11 12 10 7 4 2 2 2 2 2 2 2 2 1 1 1 1 1 1 0 0 0 0 0 0 0 0 0 0 0 0 0
5 5 6 7 8 8 7 7 7 7 8 10 12 10 7 4 2 2 2 2 2 2 2 2 2 2 2 2 1 1 1 0 0 0 0 0 0 0 0 0 0 0 0
5 6 7 7 7 7 7 6 5 5 6 9 10 8 5 4 3 3 3 2 2 2 2 2 2 2 2 2 1 1 0 0 0 0 1 1 1 0 0 0 0 0 0

GEFSMW_con_maxscp_198.txt.gz
SCP
2 2 2 2 2 3 3 3 3 3 4 4 3 2 2 1 1 1 1 1 1 1 1 1 2 1 1 1 1 1 1 1 1 1 1 1 1 1 1 1 1 1 1
2 2 2 3 3 3 3 3 3 3 4 4 3 3 2 2 1 1 1 1 1 1 2 2 2 2 1 1 1 1 1 1 1 1 1 1 1 1 1 1 1 1 1
2 2 2 3 3 3 3 3 3 4 4 4 3 3 2 2 1 1 2 2 2 2 2 2 3 2 1 1 1 1 1 1 1 1 1 1 1 1 1 1 1 1 1
2 2 2 2 3 3 3 3 3 4 4 4 3 3 2 2 1 2 2 2 2 2 2 2 2 2 2 1 1 2 2 1 1 1 1 2 1 1 1 1 1 1 1
2 2 2 2 3 3 3 3 3 3 3 3 3 3 2 2 2 2 2 2 2 2 2 2 2 2 2 1 2 2 2 1 1 1 1 2 2 2 2 1 1 1 1
3 3 3 3 3 3 3 3 4 4 4 4 3 3 3 3 3 3 3 3 2 2 2 2 2 2 2 2 2 2 2 1 1 1 1 2 2 3 2 2 1 1 1
2 2 3 3 4 4 4 4 4 4 4 4 4 4 4 4 4 4 4 3 2 2 2 2 2 2 2 2 2 2 2 1 1 1 2 2 2 3 3 2 2 2 2
2 2 2 3 4 5 5 4 5 5 4 4 4 4 4 4 4 4 4 3 3 2 2 2 2 2 2 2 2 2 2 1 1 1 1 2 2 2 3 3 2 2 2
2 2 2 3 4 5 5 5 4 4 4 4 3 3 4 4 4 4 3 3 2 2 2 2 2 1 2 2 2 2 2 2 1 1 2 2 2 2 2 3 3 2 2
3 3 3 3 3 4 5 5 4 4 4 4 3 3 3 3 3 3 2 2 2 2 2 2 2 2 1 1 2 2 2 2 2 2 2 2 2 2 2 2 2 2 2
4 5 4 3 3 4 4 5 5 5 5 5 4 4 3 3 3 3 2 2 2 2 3 3 3 2 2 2 2 2 2 2 3 3 3 3 2 2 2 2 1 1 1
7 7 6 4 4 4 5 5 5 5 6 6 5 5 4 3 3 3 2 2 2 2 3 3 3 2 2 2 2 3 3 3 4 4 4 3 2 2 2 2 2 1 1
8 8 7 5 4 4 4 4 5 6 7 7 7 6 5 5 4 4 3 2 2 3 3 3 3 3 3 4 4 4 4 5 5 5 4 3 2 2 2 2 2 2 2
6 6 6 6 6 5 5 6 6 6 7 9 9 8 7 7 7 6 4 3 3 4 4 4 3 3 4 5 6 6 6 6 5 4 3 2 2 2 3 3 2 2 2
4 4 5 6 7 8 8 7 6 6 7 10 12 10 9 10 10 9 7 5 5 5 5 5 4 5 6 7 8 8 8 7 5 3 3 2 2 2 2 2 2 2 2
4 5 7 8 9 10 9 8 7 6 7 9 12 11 10 11 12 11 9 7 6 5 6 6 6 6 7 7 7 7 7 6 4 3 3 2 2 2 1 1 1 2 2
6 6 8 9 10 10 9 8 7 7 8 9 11 12 11 11 12 12 10 8 6 6 6 6 6 8 8 6 4 4 4 4 3 3 3 2 2 2 2 1 1 1 1
7 7 7 8 9 9 8 7 7 8 9 11 13 13 11 10 11 11 9 7 6 6 5 5 6 7 7 4 2 1 2 3 3 3 3 3 2 2 2 2 1 1 1
7 7 6 6 6 6 7 7 8 10 12 13 14 12 11 10 10 10 7 6 5 5 5 5 6 6 4 3 1 1 2 3 3 4 4 3 3 2 1 1 1 1 1
6 7 7 6 6 6 7 8 9 12 15 16 14 10 9 9 9 8 6 5 4 4 5 6 5 4 3 2 1 1 1 2 3 4 4 3 2 1 1 1 1 1 1
6 7 7 7 7 7 7 8 9 12 15 15 13 9 8 9 9 8 6 5 4 4 4 5 4 4 3 3 1 1 1 2 3 4 5 3 2 1 0 0 1 1 1
6 7 8 8 7 7 7 8 9 11 13 13 12 10 10 10 10 9 8 5 4 4 4 4 4 4 3 2 1 0 1 1 3 4 4 3 1 0 0 0 0 0 0
8 8 9 8 7 7 8 8 9 11 12 12 12 12 12 12 12 12 9 6 5 4 4 4 3 3 2 1 1 1 0 1 2 3 3 2 1 0 0 0 0 0 0
9 9 10 10 8 7 8 9 9 10 12 12 13 13 13 13 13 12 9 6 5 4 5 4 3 2 2 1 2 2 2 1 1 2 2 1 1 1 1 1 0 0 0
9 9 9 10 9 8 8 9 10 11 12 13 12 12 12 12 12 10 7 5 4 3 4 4 3 2 2 2 2 3 3 2 2 2 2 2 2 2 1 1 1 1 1
9 8 8 10 10 9 9 9 10 11 12 12 12 11 11 11 11 9 6 4 3 3 3 3 3 3 3 3 3 3 2 2 2 2 2 2 2 2 2 2 1 1 1

GEFSMW_con_maxscp_204.txt.gz
SCP
3 3 4 6 7 8 9 8 7 7 7 5 3 3 3 4 5 6 5 3 3 2 2 2 2 2 2 2 2 1 1 1 1 1 1 1 1 1 1 2 1 1 1
3 3 4 5 7 8 9 8 7 7 7 5 4 3 3 3 4 6 6 4 3 3 2 2 2 2 2 2 2 2 1 1 1 1 1 1 1 1 1 1 1 1 1
3 3 4 4 6 8 9 8 7 7 7 7 5 4 4 4 4 6 6 5 4 3 2 2 2 2 2 2 2 2 2 1 1 1 1 1 1 1 1 1 1 1 2
4 4 4 4 4 7 9 9 9 8 8 8 7 5 4 4 4 5 5 5 5 4 3 2 2 2 2 2 2 2 2 2 1 1 1 1 1 1 1 1 1 1 1
5 5 5 4 4 5 8 9 10 10 8 8 7 6 5 4 4 4 4 5 5 4 3 3 2 2 2 2 2 2 2 2 1 1 1 1 1 1 1 1 1 1 1
6 6 6 6 6 7 8 10 11 11 9 7 6 6 6 5 5 4 4 5 5 5 4 3 3 2 2 2 2 2 2 2 1 1 1 1 1 1 1 1 1 1 1
6 6 7 8 10 10 10 11 11 10 8 7 6 7 7 6 6 6 5 4 4 4 3 3 3 3 3 3 3 2 2 2 2 1 1 1 1 1 1 1 1 1 1
5 5 7 10 12 12 11 10 10 8 7 7 6 7 7 6 7 7 5 4 3 3 3 3 3 3 3 2 2 2 2 2 2 1 1 1 1 1 1 1 1 1 1
4 4 7 10 12 12 9 8 7 7 7 7 6 6 6 6 6 6 5 3 3 3 3 3 3 3 3 2 2 2 2 2 2 2 1 1 2 2 2 2 2 1 1
4 4 6 9 10 9 8 7 7 8 8 7 6 5 6 6 6 5 4 4 3 3 3 3 4 4 4 4 3 3 2 2 2 2 2 2 2 3 3 3 2 1 1
4 4 6 7 7 7 7 7 8 9 9 8 7 6 6 7 6 6 5 5 5 5 4 4 4 5 5 6 5 4 3 3 3 2 2 3 3 3 4 3 2 1 1
6 6 7 7 7 7 7 7 8 10 11 11 9 8 7 7 7 7 7 8 8 7 6 6 6 5 6 6 7 6 6 5 5 5 4 4 4 5 5 4 3 2 2
7 8 8 8 8 8 8 8 8 10 13 14 12 9 8 8 8 9 10 10 10 8 7 7 7 7 6 6 7 7 7 7 7 7 7 6 7 7 7 5 3 2 2
7 7 7 9 10 11 11 11 10 11 14 15 13 10 9 9 8 10 12 13 11 9 7 7 7 7 7 6 7 7 7 7 8 8 8 8 8 9 8 6 3 2 2
7 7 8 10 12 14 14 14 14 13 14 14 12 9 9 8 8 11 14 13 11 9 8 7 6 6 6 6 6 6 7 6 7 8 9 9 9 9 8 5 3 2 2
7 7 9 11 14 16 17 17 15 15 15 14 11 9 8 7 8 12 14 12 10 9 8 8 7 6 5 4 4 5 6 6 7 7 8 8 7 7 5 3 2 2 2
7 7 8 10 13 15 16 16 16 15 14 13 12 10 9 8 8 10 11 11 9 9 8 9 9 7 5 3 3 3 4 6 7 7 7 7 6 4 3 2 1 1 1
7 7 6 7 9 11 12 13 15 15 15 14 12 11 9 9 9 9 10 11 10 10 9 9 9 7 4 3 2 2 3 6 7 7 7 7 4 2 2 2 2 2 2
9 7 6 6 7 8 10 13 16 17 16 15 14 11 9 9 9 9 10 12 12 11 10 10 9 6 4 3 2 2 3 5 6 6 7 5 4 2 2 2 3 3 2
12 11 9 8 8 9 10 14 18 19 18 16 14 11 9 9 9 9 11 13 13 12 11 11 10 6 4 3 2 1 3 4 4 5 4 4 3 2 1 2 3 3 2
13 14 13 12 12 12 13 15 19 19 18 17 14 11 10 9 9 10 11 12 12 12 10 9 8 6 4 3 1 1 2 3 3 3 3 2 2 1 1 2 2 2 1
12 13 16 18 19 18 17 17 18 19 18 17 15 12 11 10 10 11 12 11 10 9 8 7 6 5 4 3 1 1 1 2 2 3 3 2 1 1 1 1 1 1 1
9 11 14 18 21 21 19 19 19 18 18 18 15 13 13 12 12 13 13 12 10 9 8 6 5 5 5 4 2 1 1 1 1 2 2 1 1 1 0 0 0 0 0
10 11 13 16 18 18 19 19 18 18 18 17 15 14 15 15 15 15 15 13 12 11 8 6 5 5 6 5 3 2 2 1 1 1 1 1 1 1 1 1 1 1 1
11 13 15 15 15 16 16 16 15 16 17 16 14 14 15 16 16 16 14 13 13 12 9 6 5 5 6 5 4 3 2 1 1 1 2 1 1 1 1 1 1 1 1
11 14 16 15 14 15 15 13 12 13 15 15 14 14 14 15 15 14 12 12 13 11 8 5 4 4 5 4 3 2 2 1 2 2 2 2 2 2 2 2 2 2 1

GEFSMW_con_maxscp_210.txt.gz
SCP
4 4 3 3 3 3 3 3 3 3 3 3 2 2 2 2 2 2 2 1 1 1 1 1 1 1 1 1 0 0 0 0 0 0 0 0 0 0 0 0 0 0 0
5 5 4 3 4 4 4 3 4 4 4 3 2 2 2 2 2 2 2 1 1 1 1 1 1 1 1 1 0 0 0 0 0 0 0 0 0 0 0 0 0 0 0
5 5 4 4 5 5 5 4 4 4 5 4 3 2 1 1 2 2 2 1 1 1 1 1 1 1 1 1 0 0 0 0 0 0 0 0 0 0 0 0 0 0 0
6 5 5 4 5 5 5 5 4 4 5 5 4 3 2 1 1 1 1 1 1 1 2 2 1 1 1 1 1 0 0 0 0 0 0 0 0 0 0 0 0 0 0
9 8 6 4 4 5 6 6 6 5 5 5 5 3 2 2 2 2 1 1 1 2 2 2 1 1 1 1 1 1 0 0 0 0 0 0 0 0 0 0 0 0 0
10 9 7 5 4 5 7 7 7 6 5 5 4 4 3 2 2 2 2 2 2 2 2 2 1 1 1 1 1 1 1 1 0 0 0 0 0 0 0 0 0 0 0
7 7 6 6 5 6 7 8 7 6 5 5 5 4 4 3 3 3 3 3 2 2 2 2 1 1 1 1 1 1 1 1 1 0 0 0 0 0 0 0 0 0 0
5 5 5 6 6 7 8 8 7 7 6 6 6 5 4 4 4 3 3 3 2 2 2 2 1 1 1 1 1 1 1 1 1 1 1 0 0 0 0 0 0 0 0
4 5 5 6 8 9 9 8 7 6 5 5 5 4 4 3 3 3 2 2 2 2 2 2 1 1 1 1 2 2 2 1 1 1 1 1 1 1 1 1 1 1 0
5 6 7 8 10 11 11 10 8 6 5 4 4 3 3 2 2 2 2 2 2 2 1 1 1 1 1 1 2 2 2 2 2 2 2 1 1 1 1 2 2 2 2
8 8 8 10 11 12 11 10 8 6 5 4 3 3 2 2 2 2 2 2 2 2 2 1 1 1 1 1 2 2 3 3 3 3 3 2 2 2 2 3 3 3 3
9 8 8 9 9 9 9 8 7 6 5 5 4 3 3 3 3 3 3 2 2 2 2 2 2 2 2 2 2 2 2 3 3 3 3 3 3 3 3 3 4 4 4
8 8 7 7 7 7 7 7 7 6 6 6 5 4 4 4 5 5 4 3 3 3 3 3 3 3 2 2 2 2 2 2 2 3 3 3 4 3 3 4 4 5 5
8 7 6 6 6 6 6 7 7 6 7 6 6 5 5 6 7 7 7 6 5 4 4 4 4 3 3 2 2 2 2 2 2 3 3 3 3 3 4 4 5 5 6
8 7 6 6 6 6 5 6 7 7 7 7 7 6 7 9 11 11 9 8 7 6 6 6 5 4 3 3 2 2 3 3 3 3 2 2 2 3 3 3 4 5 6
7 7 6 6 6 6 6 6 6 7 7 8 8 7 9 12 15 14 11 9 8 7 7 7 6 5 4 3 2 2 2 3 3 3 2 2 2 2 2 2 3 4 5
6 6 6 6 6 6 7 7 6 6 6 7 8 9 10 14 17 15 11 9 8 7 7 7 6 5 3 2 2 2 2 2 2 2 2 2 2 2 1 1 2 3 4
5 6 6 7 5 5 7 8 7 5 5 6 7 8 11 14 15 12 10 8 8 7 7 6 6 4 3 2 1 1 2 2 2 2 2 2 2 2 1 1 1 2 2
5 5 6 6 5 5 7 8 8 7 6 5 6 7 9 11 11 10 9 9 8 7 6 6 5 4 2 1 1 1 1 2 2 2 2 2 2 1 1 1 1 1 1
6 6 6 6 6 7 8 9 11 10 8 6 6 6 7 8 9 9 9 9 9 8 6 5 5 3 2 2 1 1 1 1 1 1 1 1 1 1 1 1 1 1 1
9 8 8 8 8 10 11 12 12 11 8 7 6 5 6 7 9 9 9 8 8 7 6 5 4 3 3 2 1 1 1 1 1 1 1 1 1 1 0 0 1 1 1
11 10 11 11 12 12 13 13 12 10 8 7 6 5 6 7 9 9 8 8 8 6 5 5 4 4 3 3 1 1 0 1 1 1 1 1 1 0 0 0 0 0 0
11 11 11 12 12 12 14 14 12 9 7 7 6 6 6 8 9 10 9 9 8 7 6 5 4 4 4 3 2 1 0 0 0 0 1 1 0 0 0 0 0 0 0
11 11 11 12 11 11 12 13 12 10 8 7 7 8 8 9 10 10 10 10 10 9 7 6 5 5 5 4 3 2 1 0 0 0 1 0 0 0 0 0 0 0 0
12 12 13 12 11 9 9 10 10 10 9 8 8 9 9 9 9 9 9 9 10 9 8 8 7 6 6 5 4 2 2 1 1 1 1 1 1 1 0 0 0 0 0
12 13 14 13 10 8 7 7 8 9 9 9 9 9 10 9 8 8 8 8 8 8 8 8 8 7 7 5 4 3 2 2 1 1 1 1 1 1 1 1 1 0 0

GEFSMW_con_maxscp_216.txt.gz
SCP
1 1 1 1 1 1 1 1 1 2 2 2 1 1 1 1 1 1 1 1 1 1 1 1 1 0 0 0 0 0 0 0 0 0 0 0 0 0 0 0 0 0 1
1 1 1 1 1 1 1 1 1 2 2 2 2 2 1 1 1 1 1 1 1 1 1 1 1 1 0 0 0 0 0 0 0 0 0 0 0 0 0 0 0 0 0
0 0 0 1 1 1 2 2 2 2 2 3 3 3 2 1 1 1 1 1 1 1 1 1 1 1 0 0 0 0 0 0 0 0 0 0 0 0 0 0 0 0 0
1 1 1 1 1 1 2 2 2 2 2 2 3 3 2 1 1 1 1 1 1 1 1 1 1 1 0 0 0 0 0 0 0 0 0 0 0 0 0 0 0 0 0
2 1 1 1 1 1 2 2 3 3 2 2 2 2 2 1 1 1 1 1 1 1 1 1 1 1 0 0 0 0 0 0 0 0 0 0 0 0 0 0 0 0 0
3 2 1 1 1 1 1 2 3 3 2 2 1 2 2 2 2 2 1 1 1 1 1 1 1 1 1 1 1 0 0 0 1 1 1 1 1 0 0 0 0 0 0
4 3 2 2 2 1 2 2 3 3 3 2 2 2 2 3 3 2 1 1 1 1 1 1 1 1 1 1 1 1 0 0 1 1 1 1 1 1 1 0 0 0 0
4 3 3 2 2 2 2 3 3 4 3 2 2 2 2 3 3 3 2 2 1 1 1 1 1 1 1 1 1 1 1 1 1 1 1 1 1 1 1 1 1 0 0
3 3 3 3 3 4 4 4 4 4 3 2 2 2 2 2 2 2 2 2 1 1 1 1 1 1 1 1 1 1 1 1 1 1 1 1 1 2 2 2 1 1 0
2 3 3 4 5 5 5 3 3 3 3 2 2 2 2 2 2 1 1 1 1 1 1 2 2 2 1 1 2 1 1 1 1 1 1 1 2 2 2 2 2 2 1
2 3 4 5 5 4 4 3 2 2 2 2 2 2 2 2 2 1 1 1 1 1 1 2 2 2 2 2 2 1 1 1 1 1 1 1 2 2 3 3 3 3 3
2 3 3 3 3 3 3 2 2 2 2 2 2 2 2 2 1 2 2 2 2 2 2 2 2 2 2 2 2 2 1 1 1 1 2 2 2 2 3 3 4 4 4
2 3 2 2 2 2 2 2 2 2 2 3 3 3 2 2 2 2 2 2 3 3 3 3 3 2 2 2 2 2 2 2 2 2 2 2 2 2 3 3 3 3 3
3 3 3 2 2 2 2 2 3 3 3 3 3 3 3 2 2 2 2 2 3 4 4 4 4 4 3 3 3 3 2 2 2 2 2 2 2 3 3 4 3 3 3
3 4 4 3 3 2 3 3 3 3 3 3 3 3 3 3 3 3 3 3 4 5 6 6 5 5 4 4 4 4 3 3 2 2 2 2 2 3 3 4 3 3 2
4 4 5 4 3 3 4 4 4 4 4 3 3 3 3 4 4 3 3 3 4 7 8 8 7 6 5 5 4 4 4 4 3 3 2 2 2 2 2 3 2 2 1
4 4 4 4 4 5 5 5 5 5 4 3 3 3 3 3 3 3 3 3 4 7 10 11 9 8 7 5 4 3 4 5 4 3 3 3 2 2 2 2 1 1 1
4 4 4 4 5 5 6 6 6 6 5 4 3 3 3 3 2 3 3 4 5 7 11 13 11 10 9 6 3 3 4 5 4 4 4 3 3 2 2 2 2 2 1
4 4 5 5 5 5 6 7 7 6 5 4 4 4 3 3 3 3 5 6 8 10 13 14 13 13 11 6 2 2 3 4 4 4 4 3 3 2 2 2 2 2 2
4 6 6 6 6 5 6 7 7 6 4 4 4 5 5 4 4 4 6 9 11 13 14 13 12 11 9 5 1 1 2 3 3 4 4 3 2 2 1 2 3 3 3
5 6 7 7 7 6 5 6 6 5 4 4 4 5 6 6 5 5 7 10 12 13 11 9 8 7 5 3 1 1 1 2 2 3 3 2 2 1 1 1 2 3 3
5 7 8 8 8 6 5 5 5 5 4 4 4 5 6 6 6 6 7 9 10 10 7 5 4 3 3 2 1 1 0 1 2 2 2 1 1 0 0 0 1 1 1
5 7 8 9 9 7 6 6 6 6 5 5 4 4 5 5 5 5 6 7 7 6 5 4 4 3 3 3 2 2 1 1 1 1 1 1 0 0 0 0 0 0 0
6 7 9 10 10 9 8 7 7 6 6 5 4 4 4 4 4 4 5 5 5 5 6 6 5 4 3 3 3 3 2 2 2 2 1 1 0 0 0 0 0 0 0
6 6 8 11 12 11 9 7 6 5 5 4 4 4 4 4 4 4 4 5 5 5 6 6 5 5 3 2 3 3 3 4 3 3 3 2 2 1 1 1 1 1 1
5 6 8 11 13 11 9 6 5 4 4 4 4 5 5 5 5 5 4 4 4 4 5 5 5 4 3 2 1 2 3 4 4 4 4 3 3 2 1 1 1 1 1

GEFSMW_con_maxscp_222.txt.gz
SCP
2 2 2 1 1 1 2 2 2 3 4 3 2 2 2 1 1 1 1 1 1 1 1 1 2 1 1 1 1 1 1 1 1 1 1 0 0 0 0 0 0 1 1
2 2 1 1 1 1 2 2 2 3 3 3 2 2 2 2 2 2 1 1 1 1 1 1 1 1 1 1 1 1 1 1 1 1 1 1 0 0 0 0 0 0 1
1 1 1 1 1 2 2 2 2 2 3 3 2 2 2 2 2 2 2 1 1 1 1 1 1 1 1 1 1 1 1 1 1 1 1 1 1 1 0 0 0 0 1
1 1 2 1 1 1 2 2 2 3 3 3 2 2 2 2 2 2 2 1 2 1 1 1 1 2 2 2 2 1 2 2 2 1 1 1 1 1 1 1 1 1 1
2 2 2 2 1 2 2 2 3 4 3 2 2 2 2 2 2 2 2 2 1 1 1 1 2 2 2 2 2 2 2 2 2 2 1 1 1 1 1 1 1 1 1
3 3 3 2 2 2 2 3 4 4 3 2 2 2 2 2 3 3 3 2 2 2 2 2 2 2 2 2 2 2 2 3 3 2 2 2 1 1 1 1 1 1 1
3 3 3 3 3 3 3 4 5 5 4 3 3 3 3 3 3 3 2 2 2 2 3 2 2 3 2 2 2 2 2 2 2 2 2 2 2 2 2 1 1 1 1
3 3 4 4 4 4 5 5 6 7 7 5 4 3 3 3 2 2 2 2 2 2 3 3 3 3 3 2 2 2 2 2 2 2 2 2 2 2 2 1 1 1 1
2 3 4 4 5 6 6 7 8 9 8 6 4 3 3 2 2 2 2 2 2 2 2 3 3 3 3 3 3 3 2 2 2 2 2 3 2 2 2 2 2 1 1
3 3 4 5 5 6 7 7 7 7 7 5 3 3 3 3 2 2 2 2 2 2 2 3 3 3 3 3 4 4 3 3 2 3 3 3 2 2 2 2 3 2 2
4 4 4 5 5 6 7 7 7 6 5 4 3 3 4 4 3 3 3 3 3 3 3 3 3 4 4 4 4 4 3 2 3 3 3 3 2 2 2 3 3 3 3
5 5 4 4 5 6 8 8 7 5 4 4 4 4 4 5 4 4 3 3 3 3 3 3 3 4 4 4 4 3 3 2 3 3 3 3 3 3 3 3 3 3 3
5 5 5 5 5 6 6 6 6 5 4 4 4 5 5 6 5 4 4 3 3 3 2 2 3 3 3 3 3 3 3 3 3 3 3 4 4 4 4 3 3 3 3
4 5 5 5 5 5 5 5 4 4 4 4 5 6 7 7 6 4 4 3 3 2 2 2 2 2 2 2 2 3 3 3 3 3 4 4 5 5 5 4 4 4 4
5 6 6 6 5 5 5 5 4 4 5 6 6 8 9 8 6 4 4 3 3 2 2 2 2 2 2 2 3 3 4 4 4 4 4 5 5 6 5 5 5 5 5
5 6 6 6 6 6 5 5 5 4 5 7 8 9 10 9 7 5 4 4 3 3 3 3 2 2 3 3 4 4 4 5 6 6 6 6 6 6 5 4 4 4 5
5 5 6 6 7 7 6 6 6 6 7 8 9 9 10 9 8 6 5 5 4 4 4 4 3 3 3 3 4 5 5 6 7 8 9 9 9 8 8 6 4 4 4
6 7 7 6 7 7 6 6 7 9 10 11 10 10 10 10 9 7 6 5 4 5 5 5 4 4 4 4 4 5 7 8 9 10 11 11 11 10 9 8 7 6 5
7 8 7 6 6 6 6 6 8 10 13 13 11 10 9 9 7 6 6 5 5 5 5 5 5 4 4 4 3 5 8 10 11 10 10 10 10 9 7 8 8 7 6
6 6 6 5 5 6 6 7 9 10 11 11 9 9 8 7 6 5 6 6 7 7 6 6 5 4 4 4 3 4 9 11 10 8 6 6 6 5 4 5 6 6 5
5 5 5 5 5 6 6 7 9 10 9 7 6 6 6 6 5 6 7 8 9 9 8 6 5 5 5 5 3 4 7 9 8 6 5 4 3 2 2 3 4 4 4
7 7 7 6 6 6 7 8 9 9 8 6 5 5 5 5 5 7 9 11 11 10 8 6 6 6 6 5 3 3 4 5 5 5 5 4 2 1 0 1 2 2 3
7 7 7 8 8 8 8 9 10 10 8 6 5 4 3 4 5 7 9 11 10 9 7 6 6 6 6 6 4 2 2 2 3 4 4 3 2 1 1 1 1 1 2
5 5 6 7 8 8 9 9 9 9 9 8 6 4 4 4 5 6 8 8 8 7 7 6 5 5 6 5 4 3 3 2 2 3 3 3 2 2 2 2 2 2 2
3 3 4 4 5 6 7 8 8 8 8 9 8 6 4 4 5 5 6 6 6 6 6 5 5 6 6 5 4 4 3 3 2 3 3 4 4 4 5 5 5 5 4
3 3 3 3 3 4 6 7 7 6 7 9 9 7 4 4 5 5 4 4 5 4 4 4 5 6 7 5 4 3 3 2 2 3 4 5 5 6 6 6 6 6 6

GEFSMW_con_maxscp_228.txt.gz
SCP
2 2 3 3 4 5 5 5 6 6 6 4 3 3 2 2 2 2 2 3 3 2 2 1 1 1 1 1 2 2 1 1 1 1 1 1 1 1 1 1 1 1 1
2 3 3 3 4 5 6 6 6 6 6 5 4 4 3 3 2 2 2 2 3 2 2 2 2 2 2 2 2 2 2 2 2 1 1 1 1 1 1 1 1 1 1
3 3 3 4 4 5 6 7 7 6 6 5 5 5 5 4 3 2 3 3 3 2 2 2 2 2 2 2 3 3 2 2 2 2 2 1 1 1 1 1 1 1 1
3 3 4 5 5 6 6 7 7 7 6 5 5 5 6 5 4 3 3 3 3 3 2 2 2 3 3 3 3 3 2 2 2 2 2 2 1 1 1 1 1 1 1
3 4 5 6 7 7 7 7 8 8 7 5 5 6 6 5 4 3 4 4 4 3 3 3 3 3 3 3 3 3 2 2 2 2 2 2 1 1 1 1 1 1 1
3 4 5 8 9 10 9 9 10 9 7 5 5 5 6 6 5 5 5 5 5 4 4 4 4 4 3 3 3 3 3 2 2 2 2 2 1 1 1 1 1 1 1
4 4 5 7 10 11 12 12 13 11 8 6 5 6 6 7 6 6 5 5 5 5 4 4 5 4 4 3 3 3 3 3 3 2 2 2 1 1 1 2 1 1 1
4 4 5 6 9 11 13 15 16 14 11 9 8 8 7 7 6 6 5 5 6 5 5 5 4 4 4 3 3 3 3 3 3 3 2 2 2 2 2 2 2 2 1
5 5 6 7 8 10 13 17 18 16 13 11 11 10 8 7 6 5 5 5 5 5 5 4 4 4 3 3 3 4 4 4 4 3 3 2 2 2 2 3 3 2 2
7 8 9 9 8 9 13 16 17 15 13 12 12 10 9 8 6 5 5 5 6 6 5 3 3 3 3 3 4 4 4 4 4 3 3 2 3 3 3 3 3 3 3
10 11 12 12 10 10 13 14 13 11 10 12 13 12 10 8 6 5 6 7 7 6 5 4 3 3 3 3 4 4 4 4 3 3 3 3 3 3 3 3 3 3 3
12 13 15 15 13 11 11 11 9 7 7 9 12 14 12 9 7 6 7 9 9 7 5 4 3 3 3 3 3 3 3 3 3 3 3 2 2 3 3 3 3 3 3
13 14 17 17 14 11 10 9 8 7 6 7 10 13 14 12 9 8 9 10 10 8 5 3 3 3 3 3 3 2 2 2 3 3 3 3 3 3 4 4 4 4 4
13 15 16 16 13 10 9 9 9 8 7 7 9 12 15 15 12 10 11 12 11 8 5 4 3 3 2 3 3 3 3 3 3 3 4 4 4 4 5 5 5 6 6
12 13 14 13 12 10 9 9 9 8 8 8 9 12 15 16 13 12 13 13 11 8 6 4 3 2 2 2 3 3 3 4 4 4 4 4 4 5 6 6 7 8 9
10 11 12 12 12 11 11 11 10 9 8 9 9 11 14 15 13 13 14 14 11 8 6 4 4 3 3 2 2 3 4 4 4 5 5 5 5 5 6 7 7 7 8
11 12 12 13 13 13 14 14 13 11 10 10 10 11 12 13 13 13 14 13 11 8 6 5 5 5 3 2 2 3 4 4 5 5 6 7 6 7 8 8 8 8 8
15 15 14 13 13 13 14 16 16 14 12 11 10 11 11 12 13 14 13 12 11 9 7 6 5 5 4 2 2 2 4 5 5 6 7 8 8 9 10 11 11 11 10
17 15 13 12 11 11 12 14 15 13 11 10 9 9 10 11 15 16 14 12 11 9 7 6 5 4 3 3 2 3 4 5 5 6 7 7 8 8 9 11 13 13 11
14 13 12 11 11 10 11 11 12 11 10 9 9 9 9 11 15 16 14 12 11 9 7 6 6 5 4 3 3 3 5 6 7 7 8 6 6 6 7 9 12 11 9
11 11 12 13 13 12 11 11 10 10 9 9 10 9 10 11 12 13 11 10 10 9 7 6 6 5 5 4 3 3 4 6 7 8 8 6 4 3 3 5 7 7 6
10 10 12 16 18 16 14 13 11 11 10 10 10 9 9 9 9 9 9 8 8 8 7 6 6 7 7 5 4 3 3 4 6 6 6 5 3 1 1 1 2 3 3
8 8 10 15 20 20 17 15 13 12 11 10 9 8 8 8 8 8 8 7 7 6 6 6 6 7 8 6 4 3 2 2 3 4 4 4 2 1 1 1 1 2 3
5 5 6 10 16 20 19 16 13 11 10 9 8 8 8 9 9 9 7 6 6 6 6 5 6 7 7 6 5 4 3 2 2 3 3 3 2 2 2 2 2 3 4
4 3 3 4 9 14 16 14 12 10 8 7 7 8 8 9 9 8 7 5 5 6 5 4 5 6 5 4 4 5 5 4 3 4 4 3 3 3 3 4 4 5 5
3 3 3 3 5 8 10 10 10 9 7 6 7 7 8 9 8 7 6 4 4 4 3 3 4 5 4 4 4 5 6 5 4 5 5 4 3 3 4 4 5 6 6

GEFSMW_con_maxscp_234.txt.gz
SCP
5 3 2 2 2 2 2 2 2 2 2 2 1 1 1 1 1 1 1 1 1 1 1 1 1 1 1 1 1 0 0 0 1 1 1 1 0 0 0 0 0 0 0
3 2 2 2 2 2 2 2 3 2 2 2 1 1 1 1 1 1 1 1 1 1 1 1 1 1 1 1 1 1 1 1 1 1 1 0 0 0 0 0 0 0 0
2 2 2 2 2 3 3 4 4 3 2 2 2 1 1 1 1 1 1 1 1 1 1 1 1 1 1 1 1 1 1 1 1 1 1 0 0 0 0 0 0 0 0
2 2 2 2 3 4 5 5 5 4 3 3 3 2 1 1 1 1 1 1 1 1 1 1 1 1 1 1 1 1 1 1 1 1 1 0 0 0 0 0 0 0 0
2 3 3 4 4 5 6 6 5 5 5 4 4 3 2 2 2 2 1 1 1 1 1 1 2 2 2 2 2 2 1 1 1 1 1 1 0 0 0 0 0 0 0
3 3 4 6 6 5 6 6 5 5 5 5 5 4 3 2 2 2 2 2 1 2 2 2 2 2 3 3 3 2 1 1 1 1 1 1 1 1 0 0 0 0 0
3 4 6 8 8 7 6 6 6 5 5 5 5 5 4 3 3 3 2 2 2 2 2 2 2 2 3 3 3 2 1 1 1 1 1 1 1 1 1 0 0 0 0
5 5 7 10 10 9 8 7 7 6 6 5 5 5 5 4 4 3 3 3 2 2 2 2 2 2 3 3 2 2 1 1 1 1 1 1 1 1 1 1 0 0 0
10 9 8 10 10 10 10 9 9 8 7 6 6 6 5 5 4 4 4 3 3 3 2 2 2 2 2 2 1 1 1 1 1 1 1 1 1 1 1 1 1 1 0
13 11 9 9 9 10 10 11 10 9 8 7 7 6 5 5 5 5 4 4 3 3 2 3 3 2 2 1 1 1 1 1 1 1 1 1 1 1 1 1 1 1 1
10 9 9 9 9 9 11 11 11 9 8 7 6 6 5 5 5 5 5 5 4 3 3 3 3 2 2 1 1 1 1 1 1 1 1 1 1 1 1 1 1 1 1
7 8 9 9 8 9 10 10 8 7 7 6 5 5 5 5 5 5 5 5 5 4 3 3 3 2 2 1 1 1 1 1 1 1 1 1 1 1 1 1 1 1 1
7 8 8 9 8 8 8 7 6 6 6 6 5 5 4 4 4 4 5 6 7 7 5 3 3 2 2 1 1 1 1 1 1 1 1 1 1 1 1 1 2 2 2
7 7 8 9 9 7 6 5 5 5 6 6 6 5 4 3 3 3 4 5 8 9 7 5 3 2 2 1 1 1 1 1 1 1 1 1 2 2 2 2 2 3 3
6 7 8 9 9 8 6 5 5 5 6 7 7 6 5 4 3 3 3 5 7 10 9 6 4 3 2 2 1 1 1 1 1 1 2 2 2 2 2 2 3 3 4
6 6 7 7 8 8 7 6 6 6 7 8 8 8 7 5 3 3 4 5 8 10 10 7 4 3 2 2 1 1 2 2 2 2 2 2 2 2 2 2 3 3 3
5 5 5 7 9 9 8 7 6 7 8 9 9 9 8 6 4 4 5 7 9 11 10 7 5 3 2 2 1 2 2 3 2 2 2 2 2 2 2 2 3 3 3
5 5 5 7 8 9 9 8 7 7 8 9 9 10 9 7 5 4 5 7 11 12 11 7 5 4 3 2 1 2 2 3 3 3 3 3 2 2 2 3 3 3 3
5 5 5 6 7 7 7 7 7 8 8 9 10 10 10 8 7 6 5 7 10 12 11 7 5 4 3 2 1 1 2 2 2 2 2 2 2 2 2 2 3 3 4
4 4 4 4 5 5 5 5 6 7 8 9 10 10 10 10 8 6 6 6 8 10 9 7 5 3 3 2 2 2 2 2 2 2 2 2 2 2 1 2 3 3 3
3 3 3 3 3 4 4 5 6 6 7 8 10 10 10 9 8 7 6 6 7 8 8 7 5 4 3 3 2 2 2 2 2 2 2 2 1 1 1 1 2 3 3
3 2 2 2 3 4 5 6 5 5 6 7 8 9 9 8 8 7 6 5 6 6 6 6 6 6 5 4 3 2 2 2 2 2 2 2 2 2 1 1 1 2 2
3 3 2 2 3 4 5 6 6 5 5 6 7 7 8 8 8 7 6 5 4 4 4 5 6 6 6 5 5 4 3 2 2 2 2 2 2 2 1 1 1 1 1
3 3 2 2 2 3 5 6 6 5 6 6 6 7 9 9 8 8 6 5 4 4 3 4 4 5 5 5 5 5 4 3 3 3 3 3 2 2 2 1 1 1 1
2 2 2 2 2 2 3 4 5 6 6 6 7 8 10 10 10 8 7 6 5 4 4 3 3 3 3 3 4 4 4 4 4 4 4 4 3 2 2 2 2 1 1
2 2 2 2 1 1 2 3 5 6 7 7 7 9 10 11 10 9 7 6 5 4 3 3 3 3 2 2 2 2 2 3 4 5 5 5 4 3 3 3 2 2 1

GEFSMW_con_maxscp_240.txt.gz
SCP
1 1 1 1 1 1 1 1 1 1 1 1 1 1 0 0 0 0 0 0 0 0 0 0 0 0 0 0 0 0 0 0 0 0 0 0 0 0 0 0 0 0 0
1 1 1 1 1 1 1 1 1 1 1 1 1 1 1 0 0 0 0 0 0 0 0 0 0 0 0 0 0 0 0 0 0 0 0 0 0 0 0 0 0 0 0
1 1 1 1 1 1 1 1 1 1 2 2 1 1 1 1 1 0 0 0 0 0 0 0 0 1 1 1 1 1 1 1 1 1 1 1 0 0 0 0 0 0 0
1 1 1 1 1 1 1 1 1 1 2 2 2 2 1 1 1 1 1 1 1 1 1 1 1 1 1 1 1 1 1 1 1 1 1 1 1 1 0 0 0 0 0
2 2 3 3 3 3 2 2 1 1 1 2 2 2 2 2 2 2 1 1 1 1 1 1 1 1 1 1 1 1 1 1 1 1 1 1 1 1 1 1 1 0 0
2 3 4 6 6 6 4 3 2 2 2 2 2 2 2 2 2 2 2 2 1 1 1 1 1 1 1 1 1 1 1 1 2 2 1 1 1 1 1 1 1 1 1
2 3 3 5 6 6 6 4 3 2 2 2 2 2 2 2 2 2 3 2 2 2 2 2 2 1 1 1 1 1 2 2 2 1 1 1 1 1 1 1 1 1 1
2 2 2 3 3 4 4 3 3 2 2 3 3 3 2 2 2 2 2 2 3 3 3 2 2 2 2 2 2 2 2 2 1 1 1 1 1 1 1 1 1 1 1
2 2 2 2 2 2 3 3 3 3 3 4 4 4 3 2 2 2 2 2 2 3 3 3 3 2 2 2 2 2 2 1 1 1 1 1 1 1 1 1 1 1 1
2 2 2 2 3 3 4 3 3 3 4 4 4 3 3 3 3 2 2 2 2 3 3 3 3 2 2 2 2 2 1 1 1 1 1 1 1 1 1 1 1 1 1
2 2 2 2 3 3 4 5 4 3 3 4 3 3 3 3 3 3 3 3 3 3 3 3 3 2 2 2 2 2 2 1 1 1 1 1 1 1 1 1 1 1 1
2 2 3 3 4 4 5 6 4 3 3 3 2 2 2 2 3 3 3 4 4 4 3 3 3 3 3 3 3 3 2 2 1 1 1 1 1 1 1 1 1 1 1
2 2 3 3 4 5 5 5 4 3 3 3 2 3 3 3 3 3 3 4 4 3 3 2 2 3 3 3 3 3 2 2 1 1 1 1 1 1 1 1 1 2 2
2 2 3 3 4 4 5 4 4 3 3 3 3 3 4 4 4 3 4 4 4 3 2 2 2 2 3 3 3 3 3 2 1 1 1 1 1 1 1 2 2 2 2
2 2 2 3 4 4 4 5 4 3 3 3 3 3 4 4 4 3 4 3 3 2 2 2 2 2 2 3 3 3 3 2 1 1 1 1 1 1 1 2 2 2 2
2 2 3 3 3 4 4 5 4 4 4 4 3 3 4 4 3 3 3 3 2 2 2 2 2 2 2 2 2 2 2 2 1 1 1 1 1 1 1 1 1 1 1
2 2 3 3 3 4 4 4 4 5 5 5 4 4 4 4 4 3 3 3 3 3 3 3 2 2 2 2 2 2 2 2 1 2 2 2 1 1 2 1 1 1 1
2 2 3 3 4 4 4 4 4 5 5 6 6 5 5 5 4 4 3 4 4 4 3 3 2 2 2 2 1 1 1 2 2 2 2 2 2 2 2 2 2 2 2
2 2 3 4 5 5 5 4 4 4 5 5 6 5 5 5 5 4 4 4 4 4 4 3 3 3 3 2 1 1 2 2 2 2 2 2 1 1 2 2 3 3 3
2 2 3 4 5 5 4 4 3 3 3 4 4 5 5 6 6 5 5 5 5 4 4 3 3 3 3 2 1 1 2 2 2 2 2 2 1 1 1 2 3 3 3
2 3 3 3 4 4 4 3 3 2 2 2 3 3 5 6 6 6 6 6 5 4 4 4 4 3 3 2 1 1 2 2 2 2 2 2 2 1 1 1 2 2 2
3 3 3 3 3 3 3 3 3 2 2 2 2 3 4 5 7 7 7 6 5 4 4 4 4 4 4 2 1 1 1 2 2 2 3 3 2 2 1 1 1 1 1
3 3 3 2 2 2 2 2 2 2 2 2 2 3 4 6 7 7 7 6 6 5 5 5 5 5 4 2 1 1 0 1 1 2 2 2 2 2 2 1 1 1 2
3 3 2 2 2 2 2 2 2 2 2 3 3 4 5 5 6 7 7 6 6 6 6 6 6 5 3 2 2 2 1 1 1 1 1 2 2 2 3 3 3 3 3
2 2 2 2 1 1 2 2 2 3 3 4 4 4 4 4 5 6 6 5 5 5 5 5 5 4 3 2 2 2 2 1 1 1 1 2 3 4 4 5 5 4 4
2 2 2 2 1 1 2 2 2 3 4 4 3 3 3 3 4 5 5 4 4 4 4 4 4 4 3 2 1 1 1 2 2 1 1 2 3 4 5 6 6 5 4

GEFSMW_con_maxscp_246.txt.gz
SCP
1 1 1 1 1 2 2 3 3 3 3 2 2 2 1 1 1 1 1 1 1 1 1 1 1 1 1 1 1 1 1 1 1 1 1 1 1 1 1 1 0 0 0
1 1 2 1 2 2 2 2 3 3 3 2 2 2 1 1 1 1 1 1 1 1 1 1 1 1 1 1 1 1 1 1 1 1 1 1 1 1 1 1 1 1 1
1 2 2 2 2 2 2 2 3 3 3 3 3 3 2 1 1 1 1 1 1 2 2 2 1 1 1 1 1 2 2 2 2 1 1 1 1 1 1 1 1 1 1
2 2 3 3 2 2 2 2 3 3 4 4 5 4 3 2 2 2 2 2 2 2 2 2 2 2 2 2 2 2 2 2 2 2 2 2 2 2 1 1 1 1 1
2 2 3 3 3 2 2 2 3 4 4 5 6 6 4 2 2 2 3 2 2 2 2 3 3 2 2 2 2 2 2 2 2 2 2 2 2 2 2 1 1 1 1
3 3 4 4 4 3 3 3 4 4 4 5 6 6 4 3 3 3 3 3 3 3 3 3 3 3 2 2 2 2 2 3 3 2 2 2 2 2 2 1 1 1 1
4 5 5 5 5 4 4 4 5 6 5 5 6 7 5 4 3 3 3 3 3 3 3 3 3 2 2 2 2 2 3 3 3 3 3 2 2 2 2 2 1 1 1
6 6 5 5 5 5 4 4 5 7 6 5 6 6 5 4 4 4 4 4 3 3 3 3 3 3 2 2 2 3 3 4 4 3 3 3 3 3 2 2 1 1 1
4 4 4 5 6 5 3 3 4 6 6 5 5 5 5 4 4 4 5 5 4 4 4 4 3 3 3 3 3 3 4 4 5 4 4 4 3 3 3 2 2 1 1
2 3 4 5 5 4 4 4 5 5 6 5 5 4 4 4 4 5 5 5 5 4 4 4 4 4 4 3 3 4 4 4 5 5 5 4 4 3 3 2 2 2 2
2 3 4 5 5 5 5 6 6 6 6 5 4 4 3 3 3 4 4 4 4 4 4 4 5 5 5 4 4 3 3 3 4 4 4 4 4 4 3 2 2 2 2
3 4 5 6 6 7 7 7 7 6 5 5 4 4 3 2 3 3 3 4 4 4 5 5 6 6 6 5 5 4 3 3 3 3 3 3 4 4 3 3 3 3 3
4 5 5 6 6 7 7 6 6 6 5 5 5 5 4 4 3 4 4 5 6 7 7 7 7 7 7 7 7 5 4 3 3 3 3 3 3 4 3 3 3 3 3
4 4 5 5 5 6 5 5 6 7 8 8 8 7 7 6 6 6 6 7 8 8 8 8 8 7 7 7 6 5 4 3 3 3 3 2 3 3 3 3 3 3 3
3 4 5 5 6 5 4 4 6 8 10 11 11 10 9 8 8 8 9 9 9 8 7 7 7 6 5 4 4 3 3 2 2 3 3 2 2 2 2 2 2 3 3
4 5 6 6 6 5 4 4 5 7 10 12 12 11 9 9 9 9 10 10 9 8 7 6 6 5 4 2 2 2 3 3 2 3 3 3 2 2 2 2 1 2 2
4 5 7 8 7 6 5 4 5 6 8 10 11 11 10 9 8 8 9 10 9 7 7 6 6 5 3 2 1 2 3 3 2 3 3 3 2 2 2 2 1 2 2
6 7 8 9 9 7 6 5 5 5 6 7 10 11 11 9 7 7 8 8 7 7 6 6 6 5 3 2 1 2 2 3 2 2 2 2 2 2 2 2 2 3 3
7 7 9 9 8 7 6 6 6 5 5 5 7 8 9 8 7 7 8 8 8 8 7 6 6 5 4 3 2 2 3 3 3 2 2 2 2 2 2 2 3 3 4
7 8 9 9 8 7 6 6 6 5 5 5 5 6 6 7 7 8 9 11 11 10 9 7 6 5 4 3 2 2 3 3 3 3 3 3 2 2 2 2 3 4 4
9 9 9 9 9 8 7 7 6 6 5 4 4 4 5 5 6 7 10 13 14 14 13 10 8 6 5 3 1 1 2 3 4 4 4 3 2 1 1 2 3 4 4
10 10 9 9 9 9 9 8 8 7 5 4 4 4 4 4 5 6 8 11 14 16 16 13 10 8 6 3 1 1 1 2 4 5 5 3 2 1 1 1 2 3 3
9 8 8 8 9 9 8 8 8 8 6 5 4 4 4 4 5 6 6 8 11 13 14 14 11 9 7 5 3 1 1 1 3 4 4 2 1 0 0 1 1 2 2
7 7 7 7 7 7 7 6 6 6 5 4 4 3 3 4 5 5 5 6 7 8 10 11 11 9 8 6 4 3 2 1 2 3 2 2 1 1 1 1 1 2 3
7 7 6 5 4 5 5 4 4 3 3 3 2 2 3 4 5 5 5 4 4 5 6 8 9 9 8 6 4 3 3 2 1 1 2 2 1 2 2 2 2 2 3
8 7 6 4 3 3 3 3 2 2 2 2 2 2 3 4 5 5 5 3 3 4 5 5 7 8 8 5 3 2 2 1 1 1 2 2 2 2 2 2 2 2 3